www.pogodaiklimat.ru

Погода и климат >> Архив погоды >> Россия >> Ненецкий АО >> Мыс Белый Нос


ПОГОДА на Мысе Белый Нос

  • Прогноз погоды на Мысе Белый Нос
  • Монитор погоды на Мысе Белый Нос

АРХИВ ПОГОДЫ на Мысе Белый Нос

Время (UTC), дата Ветер
(напр.,м/с)
 
Видим.   Явления Облачность Т
(С)
Тd
(С)
f
(%)
Тe
(С)
Тes
(С)
Комфортность P
(гПа)
Po
(гПа)
Тmin
(С)
Tmax
(С)
R
(мм)
R24
(мм)
S
(см)
12 17.01 В 12-14
{15}
1000 м слаб. ливневой снег {метель} 10/10 300 м
[Cb cap]
-13.8 -14.8 92 -26 -26 988.3 987.5
15 17.01 СВ 8-10
{14}
4000 м слаб. ливневой снег {метель} 10/10 300 м
[Cb cap]
-12.7 -13.6 93 -23 -23 985.5 984.8 -11.5 1
18 17.01 СВ 7
{10}
4000 м слаб. ливневой снег {метель} 10/8 300 м
[Cb cap Cs]
-10.9 -11.7 94 -20 -20 984.3 983.5
21 17.01 СВ 6 20 км позёмок {ливн. осадки} 10/8 600 м
[Sc Ac trans Cs]
-11.0 -11.8 94 -20 -20 984.6 983.8
00 18.01 В 1 4000 м слаб. ливневой снег {метель} 10/10 300 м
[Cb cap]
-10.5 -11.3 94 -13 -13 985.2 984.4
03 18.01 СВ 6 20 км {ливн. осадки} 10/10 600 м
[Sc]
-11.0 -11.9 93 -20 -20 985.8 985.0 -12.7 0.7 16
06 18.01 В 3 20 км {ливн. осадки} 10/10 600 м
[Sc]
-11.9 -12.8 93 -18 -18 986.4 985.6
09 18.01 СЗ 3 20 км 8/3 300 м
[Sc Ac lent Ci fib]
-12.9 -13.8 93 -19 -19 987.1 986.3
12 18.01 С 3 20 км 8/5 300 м
[Sc Ac trans]
-14.3 -15.3 92 -21 -21 988.4 987.6
15 18.01 СЗ 4 20 км в посл. час туман 10/0
[Cs]
-12.8 -13.9 91 -20 -20 989.6 988.8 -10.8
18 18.01 СЗ 8-10
{11}
20 км позёмок {ливн. осадки, туман} 3/3 300 м
[Sc]
-12.3 -13.2 93 -22 -22 990.5 989.7
21 18.01 СЗ 7
{11}
20 км позёмок 4/0
[Ac trans]
-10.5 -11.5 92 -20 -20 991.2 990.4
00 19.01 СЗ 7 20 км позёмок ясно -11.2 -12.0 94 -21 -21 991.7 991.0
03 19.01 СЗ 4 20 км {метель} ясно -12.8 -13.7 93 -20 -20 992.6 991.8 -13.5 0.2 16
06 19.01 СЗ 4 20 км {метель} 8/6 300 м
[Sc Cc]
-10.3 -11.4 92 -17 -17 993.2 992.4
09 19.01 штиль 0 20 км 10/0
[Ac und]
-9.4 -10.6 91 -10 -10 993.8 993.0
12 19.01 ЮВ 3 4000 м слаб. ливневой снег 9/8 300 м
[Cb cap Ac und]
-10.8 -11.7 93 -17 -17 995.0 994.2
15 19.01 Ю 4 20 км в посл. час ливневой снег 10/10 300 м
[Sc]
-10.4 -11.0 95 -17 -17 996.1 995.3 -8.7 0.9
18 19.01 Ю 4 20 км {ливн. осадки} 9/9 300 м
[Sc]
-9.9 -10.5 95 -17 -17 996.6 995.8
21 19.01 Ю 4 20 км 8/8 300 м
[Sc]
-8.8 -9.1 98 -16 -16 997.1 996.3
00 20.01 СЗ 6 20 км 10/10
[Sc]
-5.0 -5.4 97 -13 -13 999.0 998.2
03 20.01 СЗ 5 20 км {снег} 10/10 300 м
[Sc]
-6.0 -6.6 96 -13 -13 1001.1 1000.3 -10.8 0.0 18
06 20.01 СЗ 1 20 км {снег} 10/10 300 м
[Sc]
-6.6 -7.4 94 -9 -9 1002.9 1002.2
09 20.01 ЮЗ 3 20 км 10/10 300 м
[Sc]
-6.3 -6.7 97 -12 -12 1004.1 1003.4
12 20.01 Ю 5 500 м туман ?/? -6.6 -7.0 97 -14 -14 1004.6 1003.8
15 20.01 Ю 5 500 м переохл. туман ?/? -5.8 -6.1 98 -13 -13 1004.8 1004.0 -5.8
18 20.01 Ю 5 20 км {туман} 9/9 300 м
[Sc]
-7.0 -7.4 97 -15 -15 1004.9 1004.1
21 20.01 Ю 5 20 км 10/10 300 м
[Sc]
-7.9 -8.4 96 -16 -16 1005.0 1004.2
00 21.01 Ю 2 20 км 10/10 300 м
[Sc]
-9.8 -10.4 95 -14 -14 1004.8 1004.0
03 21.01 Ю 2 20 км 10/10 300 м
[Sc]
-11.4 -12.1 95 -16 -16 1004.0 1003.2 -11.6 18
06 21.01 Ю 2 20 км 10/4 600 м
[Sc diur, vesp Ac lent Cs]
-11.8 -12.6 94 -16 -16 1003.1 1002.3 -11.9
09 21.01 ЮВ 2 20 км в посл. час снег 10/8 600 м
[Sc Ac lent Cc]
-11.8 -12.5 95 -16 -16 1002.9 1002.1
12 21.01 ЮВ 3 20 км в посл. час снег {метель} 10/4 600 м
[Sc diur, vesp Ac lent Cc]
-14.2 -15.2 92 -21 -21 1002.0 1001.2
15 21.01 ЮВ 4 20 км позёмок {снег} 9/3 600 м
[Sc diur, vesp Ac trans]
-15.7 -16.9 90 -24 -24 1001.7 1000.8 -11.0 0.2
18 21.01 ЮВ 3 20 км {снег, метель} 9/3 600 м
[Sc diur, vesp Ac trans]
-17.7 -19.1 89 -25 -25 1001.6 1000.8
21 21.01 В 2 20 км 9/0
[Ac trans]
-18.8 -20.3 88 -24 -24 1001.0 1000.2
00 22.01 ЮЗ 1 20 км 8/0
[Ac cast Cc]
-18.9 -20.3 89 -22 -22 999.7 998.9
03 22.01 СЗ 2 20 км 10/0
[Cs]
-14.7 -15.9 91 -20 -20 998.3 997.5 -20.6 16
06 22.01 В 2 20 км 10/0
[Ac cast Cs]
-17.8 -19.2 89 -23 -23 997.8 997.0
09 22.01 В 2 20 км 10/0
[Ac cast Cs]
-18.9 -20.2 89 -25 -25 997.9 997.1
12 22.01 СВ 2 20 км 10/3 300 м
[Sc Ac lent Cs]
-20.5 -22.3 85 -26 -26 998.1 997.3
15 22.01 В 1 20 км 8/0
[Ci fib]
-24.2 -26.2 83 -28 -28 998.5 997.7 -14.7
18 22.01 ЮВ 1 20 км 4/0
[Ci fib]
-25.6 -27.7 82 -29 -29 999.2 998.4
21 22.01 ЮВ 5 20 км 6/0
[Ci fib]
-25.9 -28.1 82 -37 -37 опасность
обморожения
1000.5 999.7
00 23.01 ЮВ 4 20 км 4/0
[Ci fib]
-24.7 -26.7 83 -35 -35 опасность
обморожения
1001.9 1001.1
03 23.01 ЮВ 8-10
{10}
20 км позёмок 8/0
[Cs]
-25.2 -27.3 83 -39 -39 опасность
обморожения
1002.9 1002.1 -26.6 16
06 23.01 ЮВ 3
{10}
20 км {метель} 4/0
[Ci fib]
-27.1 -29.4 81 -36 -36 опасность
обморожения
1005.0 1004.2 -27.1
09 23.01 ЮВ 6 4000 м туман поземный 8/0
[Ac trans Ci fib]
-26.8 -29.0 82 -40 -40 опасность
обморожения
1006.3 1005.5
12 23.01 ЮВ 7 4000 м туман поземный 10/0
[Ac trans Ci fib]
-25.1 -27.3 82 -38 -38 опасность
обморожения
1007.9 1007.1
15 23.01 В 3 20 км 6/0
[Ci fib]
-26.4 -28.7 81 -35 -35 опасность
обморожения
1009.6 1008.8 -25.0
18 23.01 ЮВ 5 20 км 9/0
[Ac trans Cc]
-25.8 -28.0 82 -37 -37 опасность
обморожения
1011.2 1010.3
21 23.01 ЮВ 4 20 км 8/0
[Ac trans Cc]
-25.0 -27.2 82 -35 -35 опасность
обморожения
1012.9 1012.1
00 24.01 ЮВ 5 20 км 6/0
[Ci fib]
-26.3 -28.6 81 -38 -38 опасность
обморожения
1014.2 1013.3
03 24.01 В 4 20 км 10/0
[Ci sp]
-25.9 -28.1 82 -36 -36 опасность
обморожения
1015.3 1014.5 -27.1 16
06 24.01 В 5 20 км 9/0
[Cc]
-25.1 -27.3 82 -36 -36 опасность
обморожения
1016.8 1015.9
09 24.01 В 5 4000 м туман поземный 8/0
[Cc]
-25.8 -28.0 82 -37 -37 опасность
обморожения
1018.4 1017.5

 

Местоположение метеостанции Мыс Белый Нос (Ненецкий АО, Россия): широта 69.60 долгота 60.21 высота над уровнем моря 6 м.

В архиве по умолчанию представлена погода на Мысе Белый Нос за последнюю неделю. Архивные данные за месяц целиком и за предыдущие месяцы, начиная с января 2011 года, Вы можете получить, выбрав интересующий диапазон дат из раскрывающегося списка и нажав кнопку "Ввод!".


*Определитесь, кто Вы:
робот инопланетянин человек

Внимание! Время в таблицах - всемирное. Для получения местного времени необходимо прибавить поправку, которая равна 3 ч.

Смотрите также архив погоды в соседних городах и на ближайших метеорологических станциях:

Погода в Амдерме (Ненецкий АО, Россия) (60 км)
Погода в Имени Федорова (Ненецкий АО, Россия) (104 км)
Погода в Варандее (Ненецкий АО, Россия) (122 км)
Погода в Усть-Каре (Ненецкий АО, Россия) (189 км)
Погода на Мысе Константиновском (Ненецкий АО, Россия) (220 км)
Погода в Марресале (Ямало-Ненецкий АО, Россия) (255 км)
Погода в Хорей-Вере (Ненецкий АО, Россия) (257 км)
Погода в Ходоварихе (Ненецкий АО, Россия) (265 км)
Погода в Воркуте (Коми, Россия) (281 км)
Погода в Елецкой (Коми, Россия) (325 км)

Пояснения к столбцам:

Ветер - указаны скорость ветра в м/с - средняя за 10 мин, порывы в срок и между сроками (в фигурных скобках) и направление, откуда дует ветер: С - северный, СВ - северо-восточный, В - восточный, ЮВ - юго-восточный, Ю - южный, ЮЗ - юго-западный, З - западный, СЗ - северо-западный.
Видимость - горизонтальная дальность видимости в метрах или километрах. При видимости от 1 до 10 км при отсутствии осадков обычно наблюдается дымка, при ухудшении видимости до 1 км и менее - туман. В сухую погоду видимость может ухудшаться дымом, пылью или мглою.
Явления - указаны атмосферные явления, наблюдавшиеся в срок или в последний час перед сроком; фигурными скобками обозначены явления, наблюдавшиеся между сроками (за 1-3 часа до срока); квадратными скобками обозначены град или гололедные отложения с указанием их диаметра в мм.
Облачность - указаны через наклонную черту общая и нижняя облачность в баллах и высота нижней границы облаков в метрах; квадратными скобками обозначены формы облаков: Ci - перистые, Cs - перисто-слоистые, Cc - перисто-кучевые, Ac - высококучевые, As - высокослоистые, Sc - слоисто-кучевые, Ns - слоисто-дождевые, Cu - кучевые, Cb - кучево-дождевые. Подробнее классификацию облаков см. в Атласе облаков (PDF).
T - Температура воздуха - температура, измеренная на высоте 2 м над землей.
Td - Температура точки росы - температура, при понижении до которой содержащийся в воздухе водяной пар достигнет насыщения.
f - Относительная влажность воздуха - влажноcть воздуха, измеренная на высоте 2 м над землей.
Te - Эффективная температура - температура, которую ощущает одетый по сезону человек в тени. Характеристика душности погоды. При расчете учитывается влияние влажности воздуха и скорости ветра на теплоощущения человека.
Tes - Эффективная температура на солнце - температура, которую ощущает человек, с поправкой на солнечный нагрев. Характеристика знойности погоды. Зависит от высоты солнца над горизонтом, облачности и скорости ветра. Ночью, в пасмурную погоду, а также при ветре 12 м/с и более поправка равна нулю.
P - Атмосферное давление - приведенное к уровню моря атмосферное давление.
Po - Атмосферное давление - измеренное на уровне метеостанции атмосферное давление.
Tmin - Минимальная температура - минимум температуры воздуха на высоте 2 м над землей.
Tmax - Максимальная температура - максимум температуры воздуха на высоте 2 м над землей.
R - Количество осадков - Количество выпавших осадков за период времени, мм. При наведении курсора мыши на число - период времени, за который выпало указанное количество осадков.
R24 - Количество осадков - Количество выпавших осадков за 24 часа, мм.
S - Снежный покров - Высота снежного покрова, см. При наведении курсора мыши на число - состояние снежного покрова и степень покрытия местности в баллах.